Location: Little Cypress
(30.1590°N, 93.7750°W)
Time: 21:08:37
(UTC-05:00)

Daily predictions for brighter satellites

Satellite Brightness Start Highest point End
(mag) Time Altitude Azimuth Time Altitude Azimuth Time Altitude Azimuth
Cosmos 1758 4.3 20:41:05 10° NNE 20:44:42 30° E 20:48:16 10° SE
Cosmos 2058 Rocket 3.1 20:43:08 10° N 20:47:32 66° E 20:51:51 10° SSE
Cosmos 1733 4.2 20:45:22 10° NNE 20:48:39 28° E 20:51:55 10° SE
Cosmos 2263 Rocket 2.2 20:43:34 10° S 20:49:09 64° ESE 20:54:46 10° NNE
ATLAS 2AS CENTAUR R/B 4.0 20:46:12 10° SSE 20:51:37 22° ESE 20:57:16 10° ENE
Cosmos 1603 4.1 20:50:26 10° N 20:55:59 49° ENE 21:01:30 10° SE
OAO 2 Rocket 4.3 20:51:45 10° W 20:56:40 40° SSW 21:01:36 10° SE
SL-23 DEB 4.2 20:54:19 10° NW 20:57:56 80° NE 21:03:42 10° SE
Envisat 3.6 20:54:59 10° S 20:59:58 59° W 21:04:59 10° NNW
Cosmos 1655 Rocket 4.2 20:54:46 10° N 21:00:52 53° E 21:06:54 10° SSE
Cosmos 972 Rocket 3.9 20:57:56 10° SSW 21:02:54 88° WNW 21:07:48 10° NNE
Cosmos 2228 3.5 20:59:03 10° NNW 21:03:24 67° W 21:07:45 10° S
YAOGAN 6 2.6 21:00:42 10° S 21:04:16 84° WSW 21:07:48 10° NNW
Cosmos 1707 3.2 21:00:48 10° SSE 21:04:26 41° E 21:08:05 10° NNE
ASTRO E2 3.9 21:01:28 10° W 21:04:58 30° SSW 21:08:06 12° SE
Cosmos 1953 2.9 21:01:41 10° NNE 21:05:25 38° E 21:08:57 11° SSE
SJ-6B 4.3 21:14:21 10° SSW 21:17:51 34° W 21:21:28 10° NNW
Lacrosse 5 2.0 21:13:08 10° SSW 21:18:01 51° ESE 21:22:55 10° NE
Cosmos 1378 3.5 21:15:58 10° SSW 21:19:38 66° W 21:23:20 10° N
Hubble Space Telescope 1.1 21:15:39 10° W 21:19:40 51° SSW 21:22:21 19° ESE
NOSS 2-3 (C) 4.5 21:16:13 10° SW 21:20:33 56° WNW 21:25:23 10° NNE
SWIFT 4.5 21:18:37 10° SW 21:20:37 13° SSW 21:22:20 11° S
Cosmos 1238 Rocket 4.4 21:23:37 11° ENE 21:23:37 11° ENE 21:24:02 10° ENE
Aureole 1 Rocket 2.7 21:24:35 20° SSE 21:26:06 35° ESE 21:29:05 10° NE
USA 215 3.3 21:22:00 16° SE 21:27:26 73° NE 21:33:58 10° NW
Cosmos 1371 Rocket 4.3 21:22:25 10° NNW 21:27:34 68° WSW 21:32:40 10° S
Cosmos 1400 Rocket 2.7 21:24:11 10° S 21:28:14 75° E 21:32:16 10° NNE
USA 186 3.7 21:30:41 10° SSW 21:33:39 28° W 21:36:31 10° NW
Cosmos 468 4.5 21:29:27 10° S 21:34:44 72° ESE 21:40:02 10° NNE
Spot 2 Rocket 3.4 21:31:21 15° SSE 21:35:32 79° ENE 21:40:36 10° N
Cosmos 1452 Rocket 4.2 21:31:57 10° N 21:36:52 38° ENE 21:39:27 24° ESE
Cosmos 1943 3.2 21:34:22 10° NNW 21:40:00 69° ENE 21:43:34 23° SSE
Aurora 2 Rocket 4.3 21:34:43 10° SW 21:40:53 41° SSE 21:47:42 15° E
Cosmos 2056 Rocket 3.8 21:36:05 10° NNW 21:41:11 64° WSW 21:45:38 14° S
H-2A R/B 2.8 21:43:05 24° ESE 21:45:23 36° ENE 21:50:13 10° N
ERS-2 2.6 21:44:48 18° S 21:47:19 56° WSW 21:50:57 10° NNW
Cosmos 1470 3.5 21:48:31 10° NNW 21:52:17 49° W 21:55:09 16° SSW
ARGOS 3.3 21:51:36 28° SE 21:54:19 57° ENE 21:59:38 10° N
Cosmos 1607 4.0 21:48:40 10° NNW 21:55:00 69° ENE 21:58:13 30° SE
Cosmos 1844 4.3 21:54:49 30° SE 21:56:06 34° ESE 22:01:11 10° NE
SL-8 R/B 3.6 21:51:43 10° SW 21:56:32 81° SE 22:01:22 10° NE
Meteor 1-24 Rocket 4.0 21:52:58 23° SSE 21:56:38 55° E 22:02:30 10° NNE
Cosmos 1269 Rocket 4.0 21:56:12 19° S 22:00:01 63° ESE 22:05:16 10° NNE
OAO 3 Rocket 3.8 21:56:04 10° W 22:00:57 57° N 22:05:27 12° ENE
Meteor 2-5 Rocket 3.9 21:56:25 10° S 22:02:22 83° W 22:08:19 10° N
Cosmos 1844 Rocket 2.8 21:59:16 23° S 22:02:42 54° ESE 22:08:12 10° NNE
DMSP B5D2-2 4.4 21:59:02 10° NNE 22:04:02 45° E 22:05:19 37° SE
Cosmos-2242 4.1 22:02:02 10° NNE 22:05:53 29° E 22:05:53 29° E
Resurs 01 Rocket 3.4 22:02:19 10° SSW 22:06:07 28° W 22:09:56 10° NW
MetOp-A 4.1 22:06:50 35° SSE 22:09:09 77° ENE 22:14:30 10° N
Cosmos 1812 Rocket 4.4 22:05:10 10° NNW 22:09:20 46° W 22:11:57 21° SSW
SL-08 RB Rocket 3.7 22:10:02 46° SE 22:11:13 65° ENE 22:15:51 10° N
Cosmos 1953 Rocket 3.4 22:09:54 39° S 22:11:28 88° E 22:15:51 10° N
Cosmos 1758 Rocket 4.0 22:14:39 24° SSW 22:17:16 61° W 22:21:40 10° N
Cosmos 494 Rocket 4.1 22:18:57 49° SE 22:19:36 52° ESE 22:24:41 10° NNE
USA 245 4.4 22:21:53 45° SE 22:23:41 67° ENE 22:29:58 10° N
ATLAS 3B R/B 4.5 22:22:15 10° N 22:26:09 16° NE 22:28:55 13° ENE
Helios 1A 4.0 22:26:52 32° ENE 22:26:52 32° ENE 22:30:07 10° N
Terra 3.5 22:27:13 19° ENE 22:27:13 19° ENE 22:30:12 10° NNE
Cosmos 1315 Rocket 4.4 22:32:20 20° SW 22:34:28 33° W 22:38:10 10° NNW
ATLAS 2AS CENTAUR R/B 3.3 22:34:19 10° SW 22:41:52 66° WNW 22:49:56 10° NNE
Cosmos 1244 Rocket 4.4 22:36:59 10° N 22:43:23 82° E 22:44:52 55° SSE
Palapa 6 Rocket 4.4 22:37:56 10° WSW 22:43:02 43° SSW 22:43:02 43° SSW
Cosmos 1745 Rocket 4.5 22:40:38 10° N 22:46:33 41° E 22:46:47 41° E
ERS-1 Rocket 3.0 22:46:49 63° SSW 22:47:25 71° WSW 22:52:27 10° NNW
SPOT 5 2.8 22:50:02 75° ENE 22:50:02 75° ENE 22:55:07 10° N
Helios 1B rocket 3.3 22:46:22 10° NNE 22:49:09 42° NNE 22:49:09 42° NNE
Meteor 1-21 Rocket 4.4 22:56:13 60° E 22:56:13 60° E 23:01:45 10° NNE
SL-08 R/B 4.4 22:50:04 10° N 22:56:12 67° E 22:56:36 65° ESE
CZ-2C R/B 3.9 22:51:28 10° NNE 22:54:35 27° ENE 22:54:35 27° ENE
Cosmos 1674 4.1 23:00:48 36° NW 23:00:48 36° NW 23:03:43 10° N
Hubble Space Telescope 3.5 22:57:27 10° WSW 22:57:42 11° WSW 22:57:42 11° WSW
Lacrosse 5 4.4 22:57:25 10° W 23:01:12 21° NW 23:04:59 10° N
Cosmos 921 Rocket 3.8 22:58:28 10° N 23:01:51 49° N 23:01:51 49° N
S3M 4.0 23:04:32 62° SSW 23:05:40 82° W 23:12:04 10° N
Cosmos 2278 Rocket 2.5 23:20:26 56° NE 23:20:26 56° NE 23:24:55 10° NNE
NOSS 3-4 (A) 3.6 23:20:16 62° NE 23:20:16 62° NE 23:25:31 10° NNE
NOSS 3-4 (C) 3.6 23:20:25 60° NE 23:20:25 60° NE 23:25:36 10° NNE
Meteor 2-13 Rocket 4.4 23:14:38 10° N 23:20:20 71° NE 23:20:20 71° NE
Nimbus 7 Rocket 4.3 23:16:29 10° NNE 23:22:26 87° N 23:22:26 87° N
SPOT 1/Viking Rocket 4.2 23:24:32 48° W 23:24:32 48° W 23:29:06 10° NNW
H-2A R/B 3.9 23:23:43 19° WSW 23:24:48 20° W 23:28:41 10° NW
ATLAS 3B CENTAUR R/B 3.6 23:10:08 10° WSW 23:24:05 50° S 23:24:05 50° S
COSMOS 2406 3.5 23:25:43 10° NNW 23:30:39 63° NNE 23:30:39 63° NNE
Aurora 2 Rocket 4.2 23:27:05 10° WSW 23:34:18 61° SSW 23:34:18 61° SSW
Cosmos 2315 Rocket 4.2 23:41:44 64° NNE 23:41:44 64° NNE 23:47:07 10° N
